Regional Weather Roundup
Issued by NWS State College, PA

Home | Current Version | Previous Version | Graphics & Text | Print | Product List | Glossary On
Versions: 1 2 3 4 5 6 7 8 9 10 11 12 13 14 15 16 17 18 19 20 21 22 23 24 25 26 27 28 29 30 31 32 33 34 35 36 37 38 39 40 41 42 43 44 45 46 47 48 49 50
925
ASUS41 KCTP 060003
RWRCTP

REGIONAL WEATHER ROUNDUP
NATIONAL WEATHER SERVICE STATE COLLEGE PA
700 PM EST FRI FEB 05 2016

Note: "fair" indicates few or no clouds below 12,000 feet with no
significant weather and/or obstructions to visibility.

* = STATION THAT DOES NOT REPORT PRECIPITATION /E.G. RAIN...SNOW...ETC/
    THUNDER OR FOG.

PAZ002>004-007>009-013>016-020>023-029>032-060100-
WESTERN PENNSYLVANIA

CITY           SKY/WX    TMP DP  RH WIND       PRES   REMARKS
ERIE           CLEAR     28  19  69 S3        30.36S
MEADVILLE      CLEAR     29  14  53 CALM      30.33R
FRANKLIN*      CLEAR     27  14  59 CALM      30.35S
NEW CASTLE     FAIR      28  18  66 CALM      30.37R
BEAVER COUNTY  CLEAR     30  18  59 CALM      30.36R
BUTLER*        CLEAR     28  14  54 CALM      30.40R
PITTSBURGH INT PTCLDY    31  16  54 CALM      30.36R
PITTSBURGH     CLEAR     33  15  47 W3        30.36R
INDIANA*       CLOUDY    28  18  64 CALM      30.38R
LATROBE        CLEAR     28  16  59 CALM      30.37R
WASHINGTON CO* CLEAR     27  18  69 CALM      30.37R
$$

PAZ004>006-010>012-017>019-024>028-033>037-041-042-045-046-049>053-060100-
CENTRAL PENNSYLVANIA

CITY           SKY/WX    TMP DP  RH WIND       PRES   REMARKS
BRADFORD       MOCLDY    23  13  65 W5        30.28R
DUBOIS         CLEAR     24  14  65 W8        30.30R
CLEARFIELD     CLEAR     29  13  51 W5        30.32R
JOHNSTOWN      CLEAR     25  12  58 W5        30.28R
ALTOONA        CLEAR     28  15  58 NW3       30.33R
STATE COLLEGE  CLEAR     30  16  55 NW6       30.33R
WILLIAMSPORT   PTCLDY    31  19  61 SW3       30.33R
SELINSGROVE    CLEAR     34  19  54 W5        30.34R
FT INDIANTOWN  PTCLDY    36  20  53 NW6       30.32R
CAPITAL CITY   CLEAR     36  16  44 W12       30.35R
HARRISBURG     PTCLDY    36  19  50 W14       30.34R
YORK           CLEAR     32  19  58 W8        30.34R
$$

PAZ038>040-043-044-047-048-054-055-060>062-067>071-060100-
EASTERN PENNSYLVANIA

CITY           SKY/WX    TMP DP  RH WIND       PRES   REMARKS
SCRANTON       CLEAR     29  15  56 NW6       30.29R
MOUNT POCONO   CLEAR     26  12  55 NW9       30.22R
ALLENTOWN      CLEAR     34  16  47 NW12      30.31R
QUAKERTOWN*    CLEAR     32  16  51 N3        30.30R
READING        CLEAR     33  19  56 NW7       30.31R
LANCASTER      CLEAR     33  21  61 W7        30.32R
COATESVILLE    CLEAR     34  25  69 NW12      30.31R
POTTSTOWN      CLEAR     34  17  50 N5        30.33R
BLUE BELL        N/A     34  19  55 CALM      30.31R
DOYLESTOWN     CLEAR     33  15  47 NW10G17   30.29R
WILLOW GROVE   NOT AVBL
NORTH PHILA    CLEAR     37  18  46 NW10G20   30.32R
PHILADELPHIA   CLEAR     39  16  39 NW9       30.33R
$$




USA.gov is the U.S. government's official web portal to all federal, state and local government web resources and services.